Meacham, OR

4:53 AM PDT on April 23, 2018 (GMT -0700)
Meacham

Weather History for KMEH - March, 2013

Change the Weather History Date:

Monday, March 11, 2013

  Actual Average Record
Temperature  
Mean Temperature 40 °F -  
Max Temperature 45 °F 41 °F 69 °F (2005)
Min Temperature 36 °F 22 °F -11 °F (2009)
Degree Days  
Heating Degree Days 24    
Moisture  
Dew Point 35 °F    
Average Humidity 85    
Maximum Humidity 97    
Minimum Humidity 58    
Precipitation  
Precipitation 0.02 in - - ()
Sea Level Pressure  
Sea Level Pressure 30.29 in    
Wind  
Wind Speed 2 mph (West)    
Max Wind Speed 6 mph    
Max Gust Speed -    
Visibility 10 miles    
Events Rain    
Averages and records for this station are not official NWS values.
T = Trace of Precipitation, MM = Missing Value Source: NWS Daily Summary

Daily Weather History Graph

Daily Weather History Graph

Search for Another Location

Airport or City:

Astronomy

Mar. 11, 2013 Rise Set
Actual Time 7:13 AM PDT 6:54 PM PDT
Civil Twilight 6:43 AM PDT 7:24 PM PDT
Nautical Twilight 6:09 AM PDT 7:58 PM PDT
Astronomical Twilight 5:34 AM PDT 8:33 PM PDT
Moon 6:47 AM PDT (3/11) 7:15 PM PDT (3/11)
Length of Visible Light 12h 40m
Length of Day
11h 41m
Waning Crescent, 0% of the Moon is Illuminated
Mar 11
Waning Crescent
Mar 11
New
Mar 19
First Quarter
Mar 27
Full
Apr 2
Last Quarter

Hourly Weather History & Observations

Time (PDT) Temp. Windchill Dew Point Humidity Pressure Visibility Wind Dir Wind Speed Gust Speed Precip Events Conditions
12:04 AM 39.2 °F - 35.6 °F 87% 30.28 in 6.0 mi Calm Calm - 0.01 in Rain Light Rain
12:56 AM 37.9 °F 35.5 °F 37.0 °F 97% 30.31 in 9.0 mi Variable 3.5 mph - 0.02 in Rain Light Rain
1:56 AM 37.9 °F 34.4 °F 36.0 °F 93% 30.32 in 10.0 mi Variable 4.6 mph - 0.00 in Rain Light Rain
2:32 AM 37.4 °F 33.8 °F 35.6 °F 93% 30.28 in 10.0 mi Variable 4.6 mph - 0.00 in   Overcast
2:44 AM 37.4 °F 32.8 °F 35.6 °F 93% 30.28 in 10.0 mi Variable 5.8 mph - 0.00 in   Overcast
2:56 AM 37.9 °F 34.4 °F 36.0 °F 93% 30.31 in 10.0 mi Variable 4.6 mph - 0.00 in   Overcast
3:04 AM 37.4 °F 32.8 °F 35.6 °F 93% 30.28 in 10.0 mi West 5.8 mph - N/A   Overcast
3:56 AM 37.9 °F 34.4 °F 36.0 °F 93% 30.31 in 10.0 mi WNW 4.6 mph - N/A   Overcast
4:56 AM 37.9 °F - 36.0 °F 93% 30.32 in 10.0 mi Calm Calm - N/A   Overcast
5:56 AM 37.9 °F 35.5 °F 35.1 °F 89% 30.33 in 10.0 mi Variable 3.5 mph - N/A   Overcast
6:56 AM 37.0 °F - 35.1 °F 93% 30.34 in 10.0 mi Calm Calm - N/A   Overcast
7:03 AM 37.4 °F - 33.8 °F 87% 30.28 in 10.0 mi Calm Calm - N/A   Overcast
7:32 AM 37.4 °F - 35.6 °F 93% 30.28 in 10.0 mi Calm Calm - N/A   Overcast
7:56 AM 37.0 °F 34.5 °F 34.0 °F 89% 30.33 in 10.0 mi Variable 3.5 mph - N/A   Overcast
8:23 AM 37.4 °F - 35.6 °F 93% 30.29 in 10.0 mi Calm Calm - N/A   Overcast
8:56 AM 37.0 °F 34.5 °F 34.0 °F 89% 30.35 in 10.0 mi Variable 3.5 mph - N/A   Overcast
9:56 AM 37.9 °F - 34.0 °F 86% 30.35 in 10.0 mi Calm Calm - N/A   Overcast
10:56 AM 39.9 °F - 35.1 °F 83% 30.34 in 10.0 mi Calm Calm - N/A   Overcast
11:13 AM 39.2 °F - 33.8 °F 81% 30.29 in 10.0 mi Calm Calm - N/A   Overcast
11:56 AM 42.1 °F - 34.0 °F 73% 30.33 in 10.0 mi Calm Calm - N/A   Overcast
12:13 PM 42.8 °F - 33.8 °F 70% 30.29 in 10.0 mi Calm Calm - N/A   Overcast
12:56 PM 44.1 °F - 32.0 °F 63% 30.32 in 10.0 mi Calm Calm - N/A   Overcast
1:56 PM 44.1 °F 42.5 °F 30.9 °F 60% 30.30 in 10.0 mi Variable 3.5 mph - N/A   Overcast
2:56 PM 45.0 °F 42.6 °F 33.1 °F 63% 30.28 in 10.0 mi Variable 4.6 mph - N/A   Overcast
3:56 PM 45.0 °F - 30.9 °F 58% 30.28 in 10.0 mi Calm Calm - N/A   Overcast
4:56 PM 43.0 °F 41.3 °F 32.0 °F 65% 30.29 in 10.0 mi Variable 3.5 mph - 0.00 in   Overcast
5:47 PM 39.2 °F - 35.6 °F 87% 30.24 in 9.0 mi Calm Calm - N/A   Overcast
5:56 PM 39.9 °F - 36.0 °F 86% 30.29 in 9.0 mi Calm Calm - N/A   Overcast
6:19 PM 39.2 °F - 35.6 °F 87% 30.24 in 10.0 mi Calm Calm - N/A   Overcast
6:56 PM 37.9 °F - 35.1 °F 89% 30.29 in 10.0 mi Calm Calm - N/A   Overcast
7:52 PM 37.4 °F - 35.6 °F 93% 30.22 in 10.0 mi Calm Calm - N/A   Overcast
7:56 PM 37.0 °F - 35.1 °F 93% 30.28 in 10.0 mi Calm Calm - N/A   Overcast
8:56 PM 37.0 °F - 35.1 °F 93% 30.28 in 10.0 mi Calm Calm - 0.00 in Rain Light Rain
9:56 PM 37.0 °F - 35.1 °F 93% 30.28 in 10.0 mi Calm Calm - 0.00 in   Overcast
10:56 PM 36.0 °F - 34.0 °F 93% 30.26 in 5.0 mi Calm Calm - 0.00 in   Overcast
11:56 PM 37.0 °F - 35.1 °F 93% 30.25 in 3.0 mi Calm Calm - N/A   Overcast